User: anonymous   Login
Location: Hepcat Sky Observatory
(29.9800°N, 95.6500°W)
Time: 17:07:13
(UTC-06:00)
Language:

SL-16 Debris - Orbit

View from above orbital plane
View from above orbital plane
View from above satellite
View from above satellite

Ground track
Ground track

The orbit data is extracted from the following two-line orbital elements,

1 26076U 00006F   14337.90735960 -.00000068  00000-0  00000+0 0  4522
2 26076 028.4650 235.9640 4663610 039.6530 014.0250 06.25906911253774
Epoch (UTC): 03 December 2014 21:46:35
Eccentricity: 0.4663610
inclination: 28.4650°
perigee height: 259 km
apogee height: 11859 km
right ascension of ascending node: 235.9640°
argument of perigee: 39.6530°
revolutions per day: 6.25906911
mean anomaly at epoch: 14.0250°
orbit number at epoch: 25377

The dashed part of the orbit path shows where the satellite is in the earth's shadow,  

DLR